Estherville, IA

2:58 PM CDT on March 25, 2017 (GMT -0500)
Estherville Municipal

Weather History for KEST - May, 2012

Change the Weather History Date:

Thursday, May 17, 2012

  Actual Average Record
Temperature  
Mean Temperature 71 °F 59 °F  
Max Temperature 89 °F 71 °F 90 °F (1987)
Min Temperature 53 °F 47 °F 32 °F (2014)
Degree Days  
Heating Degree Days 0 7  
Month to date heating degree days 63 163  
Since 1 July heating degree days 6115 7624  
Cooling Degree Days 6 1  
Month to date cooling degree days 21 11  
Year to date cooling degree days 41 13  
Growing Degree Days 22 (Base 50)    
Moisture  
Dew Point 45 °F    
Average Humidity 43    
Maximum Humidity 62    
Minimum Humidity 24    
Precipitation  
Precipitation 0.00 in 0.13 in 1.96 in (2000)
Month to date precipitation 2.28 2.15  
Year to date precipitation 8.77  
Sea Level Pressure  
Sea Level Pressure 29.86 in    
Wind  
Wind Speed 24 mph (South)    
Max Wind Speed 39 mph    
Max Gust Speed 46 mph    
Visibility 10 miles    
Events      
T = Trace of Precipitation, MM = Missing Value Source: NWS Daily Summary

Daily Weather History Graph

Daily Weather History Graph

Search for Another Location

Airport or City:

Trip Planner

Search our weather history database for the weather conditions in past years. The results will help you decide how hot, cold, wet, or windy it might be!

Date:

Astronomy

May. 17, 2012 Rise Set
Actual Time 5:52 AM CDT 8:39 PM CDT
Civil Twilight 5:18 AM CDT 9:12 PM CDT
Nautical Twilight 4:36 AM CDT 9:54 PM CDT
Astronomical Twilight 3:48 AM CDT 10:43 PM CDT
Moon 3:55 AM CDT (5/17) 5:48 PM CDT (5/17)
Length of Visible Light 15h 53m
Length of Day
14h 47m
Waning Crescent, 9% of the Moon is Illuminated
May 17
Waning Crescent
May 20
New
May 28
First Quarter
Jun 4
Full
Jun 11
Last Quarter

Hourly Weather History & Observations

Time (CDT) Temp. Dew Point Humidity Pressure Visibility Wind Dir Wind Speed Gust Speed Precip Events Conditions
12:52 AM 57.0 °F 33.1 °F 40% 29.98 in 10.0 mi South 9.2 mph - N/A   Clear
2:52 AM 59.0 °F 37.9 °F 46% 29.93 in 10.0 mi South 16.1 mph - N/A   Clear
3:52 AM 55.9 °F 39.0 °F 53% 29.93 in 10.0 mi South 11.5 mph - N/A   Clear
4:52 AM 55.9 °F 39.9 °F 55% 29.95 in 10.0 mi South 11.5 mph - N/A   Clear
5:52 AM 55.9 °F 43.0 °F 62% 29.94 in 10.0 mi South 13.8 mph - N/A   Clear
6:52 AM 57.9 °F 45.0 °F 62% 29.96 in 10.0 mi South 13.8 mph - N/A   Clear
7:52 AM 61.0 °F 45.0 °F 56% 29.96 in 10.0 mi South 17.3 mph - N/A   Clear
8:52 AM 66.0 °F 46.0 °F 48% 29.93 in 10.0 mi SSE 21.9 mph 27.6 mph N/A   Clear
9:52 AM 73.0 °F 44.1 °F 35% 29.90 in 10.0 mi South 29.9 mph 40.3 mph N/A   Clear
10:52 AM 75.9 °F 45.0 °F 33% 29.88 in 10.0 mi SSE 31.1 mph 38.0 mph N/A   Clear
11:52 AM 79.0 °F 46.0 °F 31% 29.86 in 10.0 mi South 32.2 mph 40.3 mph N/A   Clear
12:52 PM 82.0 °F 46.9 °F 29% 29.83 in 10.0 mi South 35.7 mph 40.3 mph N/A   Clear
1:52 PM 84.9 °F 46.9 °F 27% 29.81 in 10.0 mi South 28.8 mph 38.0 mph N/A   Clear
2:52 PM 88.0 °F 46.0 °F 23% 29.78 in 10.0 mi South 34.5 mph 42.6 mph N/A   Clear
3:52 PM 88.0 °F 46.0 °F 23% 29.77 in 10.0 mi South 31.1 mph 40.3 mph N/A   Clear
4:52 PM 88.0 °F 46.0 °F 23% 29.75 in 10.0 mi South 32.2 mph 43.7 mph N/A   Clear
5:52 PM 87.1 °F 46.0 °F 24% 29.74 in 10.0 mi South 28.8 mph 40.3 mph N/A   Clear
8:52 PM 75.9 °F 48.9 °F 38% 29.76 in 10.0 mi South 26.5 mph 35.7 mph N/A   Clear
9:52 PM 73.9 °F 48.9 °F 41% 29.78 in 10.0 mi South 26.5 mph 36.8 mph N/A   Clear
10:52 PM 71.1 °F 48.9 °F 45% 29.78 in 10.0 mi South 24.2 mph 29.9 mph N/A   Clear
11:52 PM 69.1 °F 48.0 °F 47% 29.79 in 10.0 mi South 21.9 mph 31.1 mph N/A   Clear